P4MIS CYHZ-CYDF

Flight info

Callsign P4MIS
Flight time N/A
Altitude 37000
Route KATLO DCT JIGGS
Aircraft A319/M-SDE3FGHIRWY/LB1

Departure

Time 2025-12-30 22:37
Airport Halifax / Stanfield International Airport (CYHZ)

Arrival

Time N/A
Airport Deer Lake Airport (CYDF)
Time Latitude Longitude Altitude Speed Heading
2025-12-30 22:19 44.88547 -63.51360 454 ft 0 kts 267°
2025-12-30 22:27 44.88548 -63.51348 454 ft 3 kts 268°
2025-12-30 22:28 44.88542 -63.51241 453 ft 3 kts 311°
2025-12-30 22:28 44.88510 -63.51216 452 ft 2 kts 348°
2025-12-30 22:29 44.88504 -63.51214 453 ft 0 kts 348°
2025-12-30 22:30 44.88522 -63.51219 453 ft 6 kts 351°
2025-12-30 22:31 44.88650 -63.51249 453 ft 13 kts 353°
2025-12-30 22:31 44.88717 -63.50998 453 ft 17 kts 78°
2025-12-30 22:32 44.88914 -63.50745 453 ft 22 kts 37°
2025-12-30 22:32 44.89002 -63.50624 452 ft 0 kts 73°
2025-12-30 22:34 44.88970 -63.50507 453 ft 15 kts 126°
2025-12-30 22:35 44.88865 -63.50463 455 ft 13 kts 216°
2025-12-30 22:35 44.88230 -63.51089 455 ft 111 kts 214°
2025-12-30 22:36 44.86581 -63.52522 1216 ft 150 kts 191°
2025-12-30 22:36 44.85068 -63.50663 2381 ft 190 kts 101°
2025-12-30 22:36 44.85456 -63.48770 2936 ft 213 kts 61°
2025-12-30 22:37 44.88128 -63.46950 4005 ft 227 kts
2025-12-30 22:37 44.91459 -63.46276 4662 ft 270 kts 12°
2025-12-30 22:38 44.96079 -63.42908 5401 ft 307 kts 34°
2025-12-30 22:39 45.00073 -63.38626 7240 ft 315 kts 37°
2025-12-30 22:39 45.02959 -63.35396 8578 ft 323 kts 37°
2025-12-30 22:40 45.06528 -63.31355 10058 ft 333 kts 36°
2025-12-30 22:40 45.10193 -63.27196 11455 ft 342 kts 36°
2025-12-30 22:41 45.13949 -63.22939 12841 ft 351 kts 35°
2025-12-30 22:41 45.15870 -63.20768 13512 ft 353 kts 35°
2025-12-30 22:41 45.19744 -63.16409 14796 ft 358 kts 35°
2025-12-30 22:42 45.25644 -63.09745 16647 ft 365 kts 36°
2025-12-30 22:43 45.29512 -63.04959 17795 ft 373 kts 41°
2025-12-30 22:43 45.33251 -62.99831 18738 ft 379 kts 43°
2025-12-30 22:44 45.37028 -62.94483 19667 ft 387 kts 43°
2025-12-30 22:44 45.40847 -62.89003 20589 ft 393 kts 43°
2025-12-30 22:44 45.42776 -62.86221 21032 ft 396 kts 43°
2025-12-30 22:45 45.46671 -62.80579 21928 ft 402 kts 43°
2025-12-30 22:45 45.50512 -62.74995 22785 ft 408 kts 43°
2025-12-30 22:46 45.56524 -62.66230 23917 ft 414 kts 43°
2025-12-30 22:46 45.58527 -62.63303 24129 ft 411 kts 43°
2025-12-30 22:47 45.64737 -62.54230 24288 ft 447 kts 43°
2025-12-30 22:48 45.69216 -62.47671 24305 ft 474 kts 43°
2025-12-30 22:48 45.71552 -62.44240 24289 ft 486 kts 44°
2025-12-30 22:48 45.76385 -62.37124 24301 ft 510 kts 44°
2025-12-30 22:49 45.81357 -62.29774 24281 ft 511 kts 44°
2025-12-30 22:49 45.86274 -62.22471 24305 ft 508 kts 44°
2025-12-30 22:50 45.93608 -62.11544 24302 ft 506 kts 44°
2025-12-30 22:51 45.98488 -62.04247 24310 ft 506 kts 44°
2025-12-30 22:51 46.03355 -61.96954 24303 ft 504 kts 44°
2025-12-30 22:52 46.08149 -61.89753 24306 ft 503 kts 44°
2025-12-30 22:52 46.10572 -61.86106 24297 ft 503 kts 44°
2025-12-30 22:52 46.15407 -61.78815 24288 ft 502 kts 45°
2025-12-30 22:53 46.20194 -61.71574 24274 ft 501 kts 45°
2025-12-30 22:53 46.24992 -61.64295 24275 ft 500 kts 45°
2025-12-30 22:54 46.31517 -61.54360 24258 ft 498 kts 45°
2025-12-30 22:55 46.36276 -61.47094 24260 ft 497 kts 45°
2025-12-30 22:55 46.40228 -61.41042 24245 ft 496 kts 45°
2025-12-30 22:56 46.44786 -61.34051 24239 ft 494 kts 45°
2025-12-30 22:56 46.49495 -61.26810 24234 ft 491 kts 45°
2025-12-30 22:56 46.51839 -61.23197 24240 ft 491 kts 45°
2025-12-30 22:57 46.56514 -61.15978 24231 ft 489 kts 45°
2025-12-30 22:57 46.61102 -61.08871 24236 ft 487 kts 45°
2025-12-30 22:58 46.68045 -60.98081 24237 ft 485 kts 45°
2025-12-30 22:59 46.72652 -60.90899 24253 ft 485 kts 45°
2025-12-30 22:59 46.76614 -60.84703 24249 ft 484 kts 45°
2025-12-30 22:59 46.78899 -60.81126 24253 ft 483 kts 45°
2025-12-30 23:00 46.83490 -60.73924 24246 ft 483 kts 45°
2025-12-30 23:00 46.88054 -60.66744 24257 ft 482 kts 45°
2025-12-30 23:01 46.92597 -60.59580 24250 ft 482 kts 45°
2025-12-30 23:01 46.97150 -60.52381 24251 ft 480 kts 45°
2025-12-30 23:02 47.03898 -60.41610 24245 ft 476 kts 45°
2025-12-30 23:03 47.08245 -60.34747 24245 ft 480 kts 45°
2025-12-30 23:03 47.12738 -60.27597 24241 ft 478 kts 45°
2025-12-30 23:03 47.14994 -60.23990 24241 ft 478 kts 45°
2025-12-30 23:04 47.19496 -60.16773 24252 ft 480 kts 46°
2025-12-30 23:04 47.24010 -60.09513 24238 ft 479 kts 46°
2025-12-30 23:05 47.33228 -59.94681 24797 ft 523 kts 51°
2025-12-30 23:06 47.40778 -59.82497 23695 ft 536 kts 48°
2025-12-30 23:07 47.46136 -59.74886 22998 ft 539 kts 46°
2025-12-30 23:07 47.51642 -59.67333 22196 ft 537 kts 46°
2025-12-30 23:07 47.54349 -59.63635 21762 ft 525 kts 46°
2025-12-30 23:08 47.59681 -59.56323 20952 ft 514 kts 46°
2025-12-30 23:08 47.64283 -59.49971 20254 ft 519 kts 46°
2025-12-30 23:09 47.69557 -59.42643 19519 ft 518 kts 46°
2025-12-30 23:09 47.74760 -59.35384 19307 ft 504 kts 46°
2025-12-30 23:10 47.82472 -59.24558 19272 ft 509 kts 47°
2025-12-30 23:11 47.87574 -59.17354 19267 ft 509 kts 47°
2025-12-30 23:11 47.90139 -59.13721 19268 ft 509 kts 47°
2025-12-30 23:11 47.95261 -59.06447 19267 ft 508 kts 47°
2025-12-30 23:12 48.00380 -58.99153 19264 ft 509 kts 47°
2025-12-30 23:12 48.05504 -58.91827 19272 ft 507 kts 47°
2025-12-30 23:13 48.10197 -58.85094 19275 ft 508 kts 47°
2025-12-30 23:13 48.15283 -58.77775 19258 ft 507 kts 48°
2025-12-30 23:14 48.22064 -58.67975 18536 ft 507 kts 47°
2025-12-30 23:15 48.27134 -58.60622 17998 ft 509 kts 47°
2025-12-30 23:15 48.29674 -58.56929 17721 ft 508 kts 48°
2025-12-30 23:15 48.34766 -58.49512 17130 ft 510 kts 48°
2025-12-30 23:16 48.39849 -58.42094 16515 ft 509 kts 48°
2025-12-30 23:16 48.44940 -58.34640 15907 ft 510 kts 48°
2025-12-30 23:17 48.50016 -58.27189 15327 ft 510 kts 48°
2025-12-30 23:17 48.54861 -58.20083 14737 ft 463 kts 49°
2025-12-30 23:18 48.61479 -58.10344 13943 ft 436 kts 49°
2025-12-30 23:18 48.63612 -58.07178 13658 ft 435 kts 49°
2025-12-30 23:19 48.67893 -58.00804 13093 ft 431 kts 50°
2025-12-30 23:19 48.72140 -57.94461 12649 ft 427 kts 50°
2025-12-30 23:20 48.76361 -57.88147 12222 ft 423 kts 50°
2025-12-30 23:20 48.80417 -57.82069 11793 ft 421 kts 50°
2025-12-30 23:21 48.84512 -57.75924 11275 ft 407 kts 50°
2025-12-30 23:21 48.87790 -57.71014 10629 ft 389 kts 50°
2025-12-30 23:22 48.91929 -57.64802 9787 ft 364 kts 51°
2025-12-30 23:22 48.93108 -57.63029 9535 ft 358 kts 51°
2025-12-30 23:24 48.93987 -57.61706 9358 ft 354 kts 51°
2025-12-30 23:24 48.97301 -57.56689 8703 ft 332 kts 51°
2025-12-30 23:25 49.00355 -57.52085 8297 ft 297 kts 52°
2025-12-30 23:25 49.03264 -57.47623 7245 ft 295 kts 52°
2025-12-30 23:26 49.07518 -57.41060 5718 ft 285 kts 50°
2025-12-30 23:26 49.08905 -57.38927 5171 ft 281 kts 50°
2025-12-30 23:27 49.11627 -57.34740 4181 ft 272 kts 48°
2025-12-30 23:27 49.14191 -57.30838 4013 ft 254 kts 48°
2025-12-30 23:28 49.16508 -57.26839 3987 ft 247 kts 66°
2025-12-30 23:28 49.18139 -57.22240 4015 ft 247 kts 67°
2025-12-30 23:29 49.19930 -57.17713 4033 ft 250 kts 60°
2025-12-30 23:29 49.22237 -57.13499 3107 ft 262 kts 42°
2025-12-30 23:30 49.26764 -57.11742 2617 ft 206 kts 329°